Weather in Golovshchino

Russia / Lipetsk Oblast     52°36′54″N   39°53′50″E
temp.,
°C
wind,
m/s
gust,
m/s
humid.,
%
clouds,
%
prec.,
mm/h
press.,
hPa
HPBL,
m
9 march, tue
tue900:00−10nw11890 0.0 100921
03:00−11nnw229040 0.0 101125
06:00−11nnw349499 0.0 1011137
09:00−10n469399 0.1 1013352
12:00−9nnw4586100 0.0 1014583
15:00−9nw5784100 0.1 1016660
18:00−12nw488991 0.0 1017305
21:00−14nw379348 0.0 1020174
10 march, wed
wed1000:00−15nw379549 0.0 1021209
03:00−17nw479427 0.0 1023189
06:00−18nw49924 0.0 1024290
09:00−19nw58902 0.0 1026353
12:00−16nnw578730 0.0 1027478
15:00−15nnw468435 0.0 1028521
18:00−17nnw47902 0.0 1028261
21:00−20nnw35941 0.0 1030142
11 march, thu
thu1100:00−21nnw23950 0.0 103274
03:00−21nnw22940 0.0 103327
06:00−21nnw23930 0.0 103342
09:00−19nnw34860 0.0 1034187
12:00−14nnw34790 0.0 1034428
15:00−13nnw237934 0.0 1034580
18:00−15nnw239065 0.0 103438
21:00−17nne229232 0.0 103525
12 march, fri
fri1200:00−18ene11930 0.0 103520
03:00−19sse11930 0.0 103520
06:00−19se12920 0.0 103520
09:00−16sse23870 0.0 1036135
12:00−13sse34790 0.0 1035300
15:00−11sse35800 0.0 1034341
18:00−13sse36890 0.0 1034106
21:00−15sse48870 0.0 1034144
13 march, sat
sat1300:00−14sse511850 0.0 1033197
03:00−13s5118516 0.0 1032234
06:00−11s61281100 0.0 1031339
09:00−9s71475100 0.0 1030570
12:00−5s81369100 0.0 1029807
15:00−4ssw71167100 0.0 10281032
18:00−5ssw51272100 0.0 1026373
21:00−6s4117492 0.0 1026218